Weather History for Omaha Millard, NE

Change the Weather History Date:

Monday, June 24, 2013

  Actual Average (KOMA) Record (KOMA)
Temperature  
Mean Temperature 73 °F 75 °F  
Max Temperature 83 °F 86 °F 103 °F (1971)
Min Temperature 64 °F 64 °F 48 °F (1974)
Degree Days  
Heating Degree Days 0 0  
Month to date heating degree days 15  
Since 1 June heating degree days 15  
Since 1 July heating degree days 6165  
Cooling Degree Days 8 10  
Month to date cooling degree days 167  
Year to date cooling degree days 249  
Since 1 June cooling degree days 167  
Growing Degree Days 23 (Base 50)    
Moisture  
Dew Point 70 °F    
Average Humidity 81    
Maximum Humidity 96    
Minimum Humidity 64    
Precipitation  
Precipitation 0.48 in 0.13 in 1.40 in (1989)
Month to date precipitation 3.42  
Year to date precipitation 14.70  
Snow  
Snow 0.00 in 0.00 in - ()
Month to date snowfall 0.0  
Since 1 July snowfall 26.4  
Snow Depth -    
Sea Level Pressure  
Sea Level Pressure 29.83 in    
Wind  
Wind Speed 5 mph (SE)    
Max Wind Speed 22 mph    
Max Gust Speed 50 mph    
Visibility 10 miles    
Events Rain , Thunderstorm    
T = Trace of Precipitation, MM = Missing Value Source: NWS Daily Summary

Daily Weather History Graph

Daily Weather History Graph

Search for Another Location

Airport:

Trip Planner

Search our weather history database for the weather conditions in past years. The results will help you decide how hot, cold, wet, or windy it might be!

Date:

Astronomy

Jun. 24, 2013 Rise Set
Actual Time 5:52 AM CDT 9:01 PM CDT
Civil Twilight 5:18 AM CDT 9:35 PM CDT
Nautical Twilight 4:35 AM CDT 10:18 PM CDT
Astronomical Twilight 3:44 AM CDT 11:09 PM CDT
Moon 10:02 PM CDT (6/24) 7:22 AM CDT (6/24)
Length of Visible Light 16h 16m
Length of Day
15h 08m
Full, 98% of the Moon is Illuminated
Jun 24
Full
Jun 29
Last Quarter
Jul 8
New
Jul 15
First Quarter
Jul 22
Full

Hourly Weather History & Observations

Time (CDT) Temp. Heat Index Dew Point Humidity Pressure Visibility Wind Dir Wind Speed Gust Speed Precip Events Conditions
12:15 AM 76.3 °F - 71.1 °F 84% 29.88 in 10.0 mi ESE 3.5 mph - N/A   Mostly Cloudy
12:35 AM 76.3 °F - 71.2 °F 84% 29.88 in 10.0 mi Calm Calm - N/A   Mostly Cloudy
12:55 AM 75.6 °F - 71.1 °F 86% 29.86 in 10.0 mi ESE 3.5 mph - N/A   Scattered Clouds
1:15 AM 75.2 °F - 71.1 °F 87% 29.86 in 10.0 mi Calm Calm - N/A   Clear
1:35 AM 74.7 °F - 71.1 °F 88% 29.86 in 10.0 mi Calm Calm - N/A   Clear
1:55 AM 74.5 °F - 71.2 °F 90% 29.86 in 10.0 mi Calm Calm - N/A   Mostly Cloudy
2:15 AM 74.8 °F - 71.6 °F 90% 29.86 in 10.0 mi ESE 3.5 mph - N/A   Overcast
2:35 AM 75.2 °F - 71.6 °F 89% 29.86 in 10.0 mi Calm Calm - N/A   Overcast
2:55 AM 75.4 °F - 71.6 °F 88% 29.87 in 10.0 mi ESE 3.5 mph - N/A   Overcast
3:15 AM 75.4 °F - 71.6 °F 88% 29.87 in 10.0 mi ESE 5.8 mph - N/A   Mostly Cloudy
3:35 AM 75.4 °F - 71.6 °F 88% 29.87 in 10.0 mi SE 4.6 mph - N/A   Scattered Clouds
3:55 AM 74.8 °F - 71.4 °F 89% 29.88 in 10.0 mi SE 3.5 mph - N/A   Scattered Clouds
4:15 AM 75.0 °F - 71.6 °F 89% 29.87 in 10.0 mi SE 4.6 mph - N/A   Mostly Cloudy
4:35 AM 74.5 °F - 71.1 °F 89% 29.87 in 10.0 mi SE 6.9 mph - N/A   Scattered Clouds
4:55 AM 74.7 °F - 71.1 °F 88% 29.87 in 10.0 mi ESE 3.5 mph - N/A   Scattered Clouds
5:15 AM 75.2 °F - 71.2 °F 87% 29.87 in 10.0 mi ESE 4.6 mph - N/A   Mostly Cloudy
5:35 AM 75.4 °F - 70.9 °F 86% 29.87 in 10.0 mi Calm Calm - N/A Thunderstorm Thunderstorm
5:55 AM 75.4 °F - 70.9 °F 86% 29.85 in 10.0 mi SE 6.9 mph - N/A Thunderstorm Mostly Cloudy
6:15 AM 75.4 °F - 70.9 °F 86% 29.86 in 10.0 mi SE 6.9 mph - N/A   Mostly Cloudy
6:35 AM 75.2 °F - 70.7 °F 86% 29.86 in 10.0 mi SE 6.9 mph - N/A   Mostly Cloudy
6:55 AM 75.2 °F - 70.9 °F 86% 29.86 in 10.0 mi SE 4.6 mph - N/A   Mostly Cloudy
7:15 AM 75.2 °F - 70.9 °F 86% 29.87 in 10.0 mi SE 5.8 mph - N/A   Mostly Cloudy
7:35 AM 75.2 °F - 70.7 °F 86% 29.88 in 10.0 mi SE 4.6 mph - N/A Thunderstorm Mostly Cloudy
7:55 AM 74.8 °F - 71.1 °F 88% 29.89 in 7.0 mi SE 4.6 mph - 0.01 in Rain Light Rain
8:15 AM 74.8 °F - 71.6 °F 90% 29.89 in 10.0 mi SE 5.8 mph - N/A   Overcast
8:35 AM 75.7 °F - 72.0 °F 88% 29.88 in 10.0 mi SE 3.5 mph - N/A   Scattered Clouds
8:55 AM 76.6 °F - 72.1 °F 86% 29.88 in 10.0 mi SE 3.5 mph - N/A   Clear
9:15 AM 77.0 °F - 71.6 °F 83% 29.89 in 10.0 mi South 5.8 mph - N/A   Scattered Clouds
9:35 AM 77.0 °F - 71.2 °F 82% 29.92 in 10.0 mi South 4.6 mph - N/A Thunderstorm Overcast
9:55 AM 66.2 °F - 63.3 °F 90% 29.98 in 1.5 mi NW 21.9 mph 49.5 mph 0.35 in Rain , Thunderstorm Heavy Thunderstorms and Rain
10:15 AM 64.8 °F - 63.5 °F 96% 29.93 in 5.0 mi NE 3.5 mph - 0.07 in Rain , Thunderstorm Light Thunderstorms and Rain
10:35 AM 65.3 °F - 63.9 °F 95% 29.88 in 5.0 mi East 5.8 mph - 0.12 in Rain , Thunderstorm Rain
10:55 AM 65.3 °F - 63.9 °F 95% 29.78 in 10.0 mi East 9.2 mph - 0.12 in Rain , Thunderstorm Light Thunderstorms and Rain
11:15 AM 66.9 °F - 65.1 °F 94% 29.76 in 10.0 mi ESE 9.2 mph - N/A Thunderstorm Scattered Clouds
11:35 AM 70.0 °F - 64.4 °F 82% 29.74 in 10.0 mi ESE 5.8 mph - N/A   Clear
11:55 AM 71.6 °F - 63.5 °F 76% 29.76 in 10.0 mi ESE 9.2 mph 17.3 mph N/A   Clear
12:15 PM 71.6 °F - 64.8 °F 79% 29.81 in 10.0 mi Calm Calm - N/A   Clear
12:35 PM 72.9 °F - 64.8 °F 76% 29.84 in 10.0 mi Calm Calm - N/A   Clear
12:55 PM 73.6 °F - 65.5 °F 76% 29.84 in 10.0 mi Calm Calm - N/A   Clear
1:15 PM 74.8 °F - 65.7 °F 73% 29.83 in 10.0 mi Calm Calm - N/A   Clear
1:35 PM 76.1 °F - 66.9 °F 73% 29.83 in 10.0 mi Calm Calm - N/A   Clear
1:55 PM 77.2 °F - 67.5 °F 72% 29.82 in 10.0 mi SE 5.8 mph - N/A   Clear
2:15 PM 78.8 °F - 68.0 °F 69% 29.83 in 10.0 mi South 8.1 mph - N/A   Scattered Clouds
2:35 PM 79.5 °F - 68.4 °F 69% 29.83 in 10.0 mi SSE 8.1 mph - N/A   Scattered Clouds
2:55 PM 79.9 °F - 67.3 °F 65% 29.83 in 10.0 mi SSE 9.2 mph - N/A   Clear
3:15 PM 80.6 °F 83.4 °F 68.4 °F 66% 29.83 in 10.0 mi SE 12.7 mph 17.3 mph N/A   Clear
3:35 PM 81.5 °F 84.4 °F 68.4 °F 64% 29.82 in 10.0 mi SSE 13.8 mph 23.0 mph N/A   Clear
3:55 PM 81.5 °F 84.6 °F 68.9 °F 65% 29.81 in 10.0 mi SSE 11.5 mph 25.3 mph N/A   Clear
4:15 PM 82.0 °F 85.9 °F 70.2 °F 67% 29.80 in 10.0 mi SSE 12.7 mph - N/A   Clear
4:35 PM 82.2 °F 86.6 °F 71.1 °F 69% 29.79 in 10.0 mi SSE 11.5 mph 23.0 mph N/A   Clear
4:55 PM 82.9 °F 87.7 °F 71.4 °F 68% 29.78 in 10.0 mi SSE 15.0 mph 18.4 mph N/A   Clear
5:15 PM 82.6 °F 87.3 °F 71.4 °F 69% 29.79 in 10.0 mi SSE 12.7 mph 17.3 mph N/A   Clear
5:35 PM 82.6 °F 87.6 °F 72.0 °F 70% 29.79 in 10.0 mi SE 15.0 mph - N/A   Clear
5:55 PM 81.9 °F 86.4 °F 71.6 °F 71% 29.78 in 10.0 mi SSE 12.7 mph 20.7 mph N/A   Clear
6:15 PM 82.9 °F 88.0 °F 72.0 °F 69% 29.78 in 10.0 mi SE 12.7 mph - N/A   Clear
6:35 PM 82.4 °F 87.4 °F 72.3 °F 71% 29.77 in 10.0 mi SE 11.5 mph - N/A   Clear
6:55 PM 82.4 °F 87.4 °F 72.3 °F 71% 29.76 in 10.0 mi SE 12.7 mph - N/A   Clear
7:15 PM 81.9 °F 86.4 °F 71.8 °F 71% 29.76 in 10.0 mi SE 11.5 mph 17.3 mph N/A   Clear
7:35 PM 80.8 °F 84.7 °F 71.6 °F 73% 29.76 in 10.0 mi SE 10.4 mph - N/A   Mostly Cloudy
7:55 PM 80.6 °F 84.6 °F 71.6 °F 74% 29.76 in 10.0 mi SE 11.5 mph - N/A   Overcast
8:15 PM 79.9 °F - 72.1 °F 77% 29.76 in 10.0 mi SE 10.4 mph - N/A   Scattered Clouds
8:35 PM 79.7 °F - 72.0 °F 77% 29.76 in 10.0 mi SE 10.4 mph - N/A   Clear
8:55 PM 79.2 °F - 71.8 °F 78% 29.76 in 10.0 mi SE 9.2 mph - N/A   Clear
9:15 PM 78.3 °F - 72.0 °F 81% 29.77 in 10.0 mi SE 8.1 mph - N/A   Clear
9:35 PM 77.9 °F - 71.8 °F 81% 29.77 in 10.0 mi SE 8.1 mph - N/A   Clear
9:55 PM 77.9 °F - 71.8 °F 81% 29.78 in 10.0 mi SE 8.1 mph - N/A   Clear
10:15 PM 77.7 °F - 71.8 °F 82% 29.78 in 10.0 mi SE 6.9 mph - N/A   Clear
10:35 PM 76.6 °F - 71.6 °F 84% 29.78 in 10.0 mi SE 6.9 mph - N/A   Clear
10:55 PM 76.6 °F - 71.1 °F 83% 29.77 in 10.0 mi SE 5.8 mph - N/A   Clear
11:15 PM 76.8 °F - 70.0 °F 79% 29.76 in 10.0 mi SE 9.2 mph - N/A   Clear
11:35 PM 76.8 °F - 69.3 °F 77% 29.76 in 10.0 mi ESE 9.2 mph - N/A   Clear
11:55 PM 76.6 °F - 68.9 °F 77% 29.74 in 10.0 mi ESE 8.1 mph - N/A   Clear